Location: Grand Rapids
(42.9630°N, 85.6680°W)
Time: 03:20:02
(UTC-04:00)

A-11 Canister half - Pass Details

Date: 02 June 2024
Orbit: 1524 x 1684 km, 47.3° (Epoch: 21 June)

Event Time Altitude Azimuth Distance (km) Brightness Sun altitude
Rises 18:37:28 0° 211° (SSW) 4,668 11.8 26.4°
Reaches altitude 10° 18:40:41 10° 205° (SSW) 3,682 11.3 25.8°
Maximum altitude 18:49:13 43° 137° (SE) 2,030 9.6 24.2°
Drops below altitude 10° 18:57:50 10° 70° (ENE) 3,726 10.6 22.7°
Sets 19:01:06 0° 64° (ENE) 4,728 11.1 22.1°
